Wind_Speed
48 48 47 47 47 47 45 45 46 46 46 47 47 48 48 47 47 47 47 46 45 45 45 44 43 43 43 42 41 42 41 41 42 42 41 41 40 39
49 50 50 49 48 48 47 47 47 47 47 48 48 49 50 49 48 48 47 47 46 46 46 47 46 45 45 45 44 44 43 43 42 42 42 42 41 40
51 51 50 50 49 49 48 48 47 48 48 48 49 49 50 51 50 49 48 48 48 47 47 47 48 47 47 47 47 46 46 45 44 43 43 43 42 42
51 51 51 51 51 51 50 49 49 48 48 48 48 49 50 51 52 52 51 50 49 50 49 49 49 49 48 48 49 48 48 47 45 45 44 44 44 44
51 51 51 52 52 51 51 50 49 49 48 48 48 49 50 51 52 52 53 52 51 50 51 50 50 49 49 50 50 49 49 49 48 46 46 45 45 45
51 51 51 52 52 52 51 51 51 51 50 49 48 49 50 51 51 52 53 53 52 51 51 50 50 50 51 50 50 51 50 50 50 49 48 47 47 47
50 50 50 51 51 52 52 51 51 51 51 50 49 48 49 50 51 52 53 54 53 53 53 52 51 52 52 52 51 51 51 51 51 50 49 49 49 49
50 50 50 51 51 53 53 52 52 51 51 50 49 48 48 50 51 52 53 54 54 54 55 54 54 53 53 53 53 53 52 51 51 51 51 50 51 51
50 50 51 51 52 53 53 53 53 52 51 51 49 48 49 51 52 52 52 53 54 55 56 55 54 54 54 54 54 54 54 53 53 53 53 52 52 53
50 50 50 51 52 52 53 53 53 53 52 51 50 50 50 51 52 52 53 54 55 55 56 56 56 55 56 55 55 55 55 55 55 55 55 55 55 54
51 51 50 51 51 52 52 53 52 52 52 51 50 50 50 51 52 53 54 54 54 55 56 56 56 56 56 56 56 57 56 56 57 57 57 57 57 57
51 51 50 51 51 52 52 53 52 52 52 51 51 51 51 51 51 52 53 54 54 54 55 57 57 57 56 56 57 57 58 58 58 58 58 58 59 59
50 50 50 50 50 51 51 52 52 51 52 52 51 51 51 51 51 52 53 54 54 54 55 57 58 58 57 56 57 58 59 59 59 58 58 58 59 59
49 48 47 48 49 49 50 50 51 51 51 51 51 51 51 51 51 52 52 53 54 54 55 56 57 58 58 57 57 57 58 58 59 59 58 58 59 59
47 46 46 46 46 47 48 50 51 51 51 51 51 51 50 51 51 51 52 53 54 54 55 56 56 57 58 57 56 57 57 57 58 58 57 57 58 58
45 44 45 45 45 46 47 48 49 50 51 50 50 50 50 51 51 52 52 52 53 54 55 55 56 56 56 57 56 56 55 55 55 56 55 55 56 56
44 44 44 44 45 46 46 47 48 49 49 50 49 49 50 50 50 50 51 52 52 53 53 54 54 55 55 55 55 54 54 53 53 53 53 53 54 54
43 42 43 43 44 45 45 46 46 47 47 48 48 48 48 48 48 48 49 50 50 51 51 51 52 53 53 53 52 52 52 51 51 51 51 51 52 52
41 41 41 41 40 41 42 43 43 44 45 46 47 47 47 47 47 46 47 47 47 47 47 49 50 50 50 49 49 50 50 50 50 50 50 50 49 50
40 39 40 40 39 40 41 41 43 43 44 44 45 46 46 46 45 44 44 45 44 44 44 45 46 46 46 46 46 48 49 50 50 50 49 49 49 48
38 38 38 38 39 39 40 41 41 42 42 43 43 42 43 43 42 42 42 42 42 42 42 42 43 43 44 45 46 46 47 48 48 48 48 48 49 48
36 37 37 37 37 38 38 38 38 38 39 39 39 40 40 40 40 40 40 41 41 41 41 41 41 42 43 43 43 44 45 46 46 46 46 47 47 47
36 36 36 37 37 37 36 36 36 36 36 37 37 37 38 37 38 38 39 40 40 41 41 41 41 42 42 42 42 43 43 44 44 44 44 45 46 45
Wind_Direction
254 254 253 255 255 255 254 254 253 252 251 251 252 251 250 250 250 249 249 249 250 250 251 253 254 255 256 256 257 259 260 261 262 262 262 262 263 263
254 254 254 255 255 255 254 254 254 254 252 252 251 251 250 251 250 249 249 248 249 250 251 253 254 255 255 256 257 258 260 261 261 261 262 262 262 262
255 254 254 254 254 254 254 254 255 255 254 253 252 251 251 251 251 250 250 249 249 250 251 253 254 255 256 256 257 257 258 259 260 260 261 261 260 261
254 254 253 253 254 254 254 255 256 256 256 255 253 252 252 252 252 251 251 250 250 251 252 253 254 255 256 256 256 256 258 259 260 260 261 261 261 261
254 254 253 253 253 253 254 255 255 255 255 254 253 253 252 252 253 253 253 252 251 251 252 252 253 255 257 257 257 257 258 259 260 261 260 260 261 261
254 254 253 253 253 253 254 254 254 255 255 254 253 253 253 253 253 253 253 253 252 251 252 252 253 255 257 258 258 258 258 259 260 260 260 260 260 261
254 254 253 252 252 252 253 254 255 255 255 254 254 254 253 253 253 253 254 253 253 252 252 253 254 256 257 257 258 259 259 259 259 259 259 260 260 260
253 253 253 253 253 253 254 254 255 256 256 255 255 255 255 255 254 254 254 254 253 252 253 254 255 256 256 256 258 259 259 259 259 260 260 260 261 261
252 252 253 254 254 255 255 255 256 256 256 255 256 256 256 256 256 255 255 254 254 252 253 254 254 255 256 256 257 257 258 259 260 260 260 261 262 262
252 253 253 254 254 254 255 255 256 256 256 256 257 257 256 256 257 257 256 255 255 254 255 255 254 255 256 256 257 257 257 258 259 260 261 262 262 262
252 252 253 254 254 255 255 255 255 255 255 257 258 259 258 258 258 258 258 258 257 256 255 256 255 255 256 256 257 257 257 258 259 260 261 262 262 262
252 252 253 254 254 254 254 255 255 255 256 258 259 259 259 258 258 259 260 259 258 257 256 256 256 256 256 256 257 257 258 258 259 260 261 262 262 262
251 252 253 254 254 254 254 254 255 256 256 258 258 258 259 259 260 260 260 260 259 258 257 257 256 257 257 257 256 257 258 259 260 260 261 262 262 262
252 253 253 254 254 254 254 255 256 257 258 258 259 260 260 261 261 261 261 261 260 259 258 257 257 258 258 257 257 258 258 259 259 260 261 261 262 262
253 253 253 254 254 255 255 256 257 258 259 260 260 261 261 262 262 262 262 261 261 260 259 258 258 258 258 258 257 257 257 258 259 259 260 260 261 262
253 253 254 254 254 255 255 256 257 258 259 260 261 262 262 263 263 263 263 262 261 260 259 259 258 258 258 258 257 257 257 257 258 258 259 260 261 261
254 253 253 254 254 254 255 257 258 258 259 259 261 262 262 264 264 264 263 261 261 260 260 259 258 257 257 257 257 256 257 257 258 259 259 259 260 261
254 254 254 254 255 254 255 256 257 258 259 260 260 261 262 264 264 264 263 262 261 260 258 258 257 256 256 255 255 256 256 257 257 258 259 259 260 261
254 254 254 255 255 254 255 255 256 259 260 261 261 261 262 263 263 263 262 261 260 259 258 257 256 255 255 255 255 255 256 257 258 259 259 259 260 262
253 254 254 255 255 256 256 257 258 260 261 261 262 262 262 262 261 261 261 260 259 258 257 257 255 254 254 254 254 254 255 257 258 258 259 260 261 261
253 254 255 257 257 257 257 258 259 260 261 261 262 261 261 261 259 259 259 259 258 258 257 256 255 254 253 253 254 254 255 256 257 258 259 260 260 261
253 255 256 257 257 257 258 258 258 259 260 260 260 259 259 259 258 258 258 257 257 256 255 255 255 255 253 253 255 256 256 256 257 258 258 259 260 261
254 255 256 257 257 258 258 258 259 259 259 258 259 258 258 258 257 257 257 257 256 254 254 254 254 255 254 254 256 257 257 257 256 257 258 259 260 262
Height
5652 5654 5657 5659 5662 5664 5667 5669 5673 5677 5680 5683 5684 5686 5689 5692 5695 5698 5702 5705 5708 5711 5713 5716 5718 5721 5723 5724 5726 5727 5728 5730 5731 5732 5733 5734 5735 5736
5639 5642 5644 5647 5649 5651 5654 5656 5659 5663 5667 5671 5672 5674 5676 5679 5682 5685 5689 5692 5695 5698 5700 5703 5706 5708 5710 5712 5714 5715 5717 5718 5719 5720 5721 5722 5724 5724
5626 5629 5632 5634 5636 5639 5641 5644 5647 5649 5652 5657 5659 5661 5663 5666 5669 5672 5675 5678 5682 5685 5687 5690 5692 5695 5697 5699 5701 5703 5704 5706 5707 5708 5709 5710 5711 5713
5613 5615 5618 5620 5623 5626 5628 5631 5633 5636 5638 5642 5645 5648 5650 5652 5655 5658 5661 5664 5668 5671 5673 5676 5679 5681 5683 5685 5687 5689 5691 5693 5694 5695 5697 5698 5699 5700
5599 5602 5604 5607 5609 5612 5614 5617 5619 5622 5624 5627 5631 5634 5637 5639 5641 5644 5647 5650 5654 5656 5659 5662 5665 5667 5669 5671 5673 5675 5678 5680 5681 5682 5683 5685 5686 5688
5585 5588 5590 5593 5595 5598 5600 5603 5605 5608 5610 5613 5617 5620 5622 5624 5627 5629 5633 5636 5639 5642 5645 5647 5650 5652 5655 5657 5659 5661 5663 5665 5667 5668 5670 5671 5673 5674
5571 5574 5576 5578 5581 5583 5586 5589 5591 5594 5596 5599 5602 5605 5608 5610 5613 5615 5618 5621 5625 5627 5630 5633 5636 5639 5640 5642 5644 5646 5648 5650 5652 5654 5656 5657 5659 5661
5557 5560 5562 5564 5567 5569 5572 5575 5577 5580 5582 5585 5588 5591 5594 5596 5597 5600 5602 5606 5611 5615 5615 5618 5620 5623 5626 5628 5629 5631 5633 5635 5637 5639 5641 5643 5645 5646
5543 5546 5548 5551 5553 5556 5558 5561 5563 5565 5568 5571 5574 5577 5579 5582 5583 5585 5587 5589 5594 5597 5598 5602 5605 5608 5611 5612 5614 5616 5618 5620 5622 5624 5626 5628 5630 5631
5529 5531 5534 5537 5539 5541 5544 5547 5549 5552 5554 5557 5560 5563 5564 5565 5566 5569 5570 5573 5578 5580 5582 5586 5590 5592 5595 5597 5599 5601 5603 5605 5607 5609 5611 5613 5614 5616
5514 5517 5519 5522 5525 5527 5530 5533 5535 5538 5540 5542 5544 5547 5548 5550 5551 5552 5555 5558 5562 5565 5567 5569 5573 5575 5578 5581 5583 5585 5587 5589 5591 5593 5595 5596 5598 5599
5501 5503 5505 5508 5510 5512 5514 5518 5521 5524 5526 5527 5530 5532 5534 5535 5536 5538 5540 5542 5545 5549 5552 5553 5556 5558 5562 5565 5566 5568 5570 5572 5575 5576 5578 5580 5581 5582
5486 5489 5491 5493 5496 5498 5500 5503 5507 5509 5511 5513 5515 5517 5519 5521 5522 5523 5524 5526 5529 5533 5536 5537 5539 5541 5544 5548 5550 5552 5553 5556 5558 5560 5561 5563 5564 5566
5472 5475 5478 5480 5482 5484 5486 5489 5492 5494 5496 5498 5500 5503 5505 5506 5507 5508 5509 5510 5512 5516 5518 5519 5522 5525 5527 5530 5533 5535 5537 5539 5541 5544 5545 5546 5547 5549
5459 5462 5464 5466 5468 5470 5473 5475 5477 5479 5481 5483 5486 5488 5490 5491 5491 5491 5492 5493 5495 5498 5500 5502 5505 5508 5510 5513 5516 5518 5521 5523 5524 5527 5529 5530 5532 5533
5445 5448 5451 5453 5455 5457 5459 5461 5462 5464 5466 5469 5471 5473 5474 5474 5475 5476 5477 5478 5479 5482 5484 5486 5488 5491 5493 5496 5498 5501 5503 5506 5508 5510 5512 5514 5516 5517
5433 5436 5438 5440 5441 5443 5445 5447 5449 5450 5452 5454 5456 5457 5458 5458 5459 5460 5460 5461 5463 5466 5468 5470 5472 5474 5476 5479 5482 5485 5487 5489 5492 5494 5496 5499 5501 5502
5421 5423 5425 5427 5428 5430 5432 5434 5435 5437 5439 5440 5441 5442 5443 5444 5444 5445 5445 5446 5447 5450 5452 5454 5455 5457 5460 5463 5466 5469 5472 5474 5476 5478 5480 5483 5486 5487
5409 5411 5413 5414 5416 5418 5420 5421 5423 5424 5425 5426 5427 5428 5429 5430 5430 5430 5430 5431 5433 5435 5437 5438 5440 5442 5445 5449 5453 5455 5457 5459 5461 5463 5466 5468 5471 5473
5397 5399 5401 5403 5404 5406 5408 5409 5410 5411 5412 5412 5413 5414 5415 5415 5416 5416 5417 5418 5420 5421 5423 5424 5426 5429 5432 5437 5439 5441 5442 5445 5447 5450 5452 5454 5457 5458
5386 5388 5390 5391 5393 5394 5395 5397 5398 5398 5399 5399 5400 5400 5401 5401 5402 5403 5404 5406 5407 5408 5410 5413 5415 5418 5420 5422 5424 5427 5429 5431 5434 5436 5438 5441 5443 5445
5375 5377 5378 5380 5381 5382 5383 5384 5385 5386 5386 5386 5387 5388 5388 5389 5390 5391 5392 5394 5395 5397 5399 5402 5403 5405 5407 5410 5412 5415 5416 5418 5420 5422 5424 5427 5428 5431
5365 5366 5367 5369 5370 5371 5372 5372 5373 5374 5374 5375 5376 5376 5377 5378 5379 5380 5381 5382 5384 5385 5388 5390 5392 5394 5396 5398 5400 5402 5404 5406 5407 5410 5412 5413 5415 5417